This demonstration page uses our WeatherBlox Daily Observations layout. Learn more.

Hourly Observations for September 23, 2016

Temp ( °F °C ) Dew Point ( °F °C ) Humidity (%) Winds ( mph kmh ) Pressure ( in mb ) Visibility ( mi km ) Precip ( " mm )
12:15 am 00:15 Clear 64 17.5 62 16.5 94 94 ENE 3 6 29.85 1011 7 11.265408 0 0
12:35 am 00:35 Clear 63 17.2 62 16.5 96 96 Calm 29.85 1011 7 11.265408 0 0
12:55 am 00:55 Clear with Mist and Fog 62 16.8 61 16 95 95 Calm 29.85 1011 5 8.04672 0 0
1:15 am 01:15 Clear with Mist and Fog 62 16.6 61 16 96 96 Calm 29.85 1011 5 8.04672 0 0
1:35 am 01:35 Clear 62 16.5 60 15.7 95 95 E 3 6 29.85 1011 7 11.265408 0 0
1:55 am 01:55 Clear 61 16.3 60 15.6 96 96 Calm 29.85 1011 7 11.265408 0 0
2:15 am 02:15 Clear 61 16 59 15 94 94 ESE 8 13 29.85 1011 10 16.09344 0 0
2:35 am 02:35 Clear 63 17.1 60 15.5 90 90 Calm 29.85 1011 10 16.09344 0 0
2:55 am 02:55 Clear 62 16.5 59 14.8 90 90 SSE 6 9 29.85 1011 10 16.09344 0 0
3:15 am 03:15 Clear 64 17.8 59 14.9 83 83 S 6 9 29.85 1011 10 16.09344 0 0
3:35 am 03:35 Clear 65 18.5 59 15 80 80 SSE 8 13 29.85 1011 10 16.09344 0 0
3:55 am 03:55 Clear 66 18.7 59 14.9 79 79 S 9 15 29.83 1010 10 16.09344 0 0
4:15 am 04:15 Clear 67 19.2 59 15 77 77 S 10 17 29.83 1010 10 16.09344 0 0
4:35 am 04:35 Clear 67 19.5 59 15 75 75 S 13 20 29.8 1009 10 16.09344 0 0
4:55 am 04:55 Clear 67 19.7 59 15 74 74 S 12 19 29.8 1009 10 16.09344 0 0
5:15 am 05:15 Clear 67 19.7 59 14.8 73 73 S 10 17 29.83 1010 10 16.09344 0 0
5:35 am 05:35 Clear 67 19.5 58 14.7 74 74 SSE 10 17 29.83 1010 10 16.09344 0 0
5:55 am 05:55 Clear 66 19.1 58 14.6 75 75 S 7 11 29.83 1010 10 16.09344 0 0
6:15 am 06:15 Clear 66 18.9 58 14.6 76 76 S 9 15 29.83 1010 10 16.09344 0 0
6:35 am 06:35 Clear 64 18 58 14.5 80 80 SSE 9 15 29.85 1011 10 16.09344 0 0
6:55 am 06:55 Clear 63 17.4 58 14.5 83 83 SSE 9 15 29.85 1011 10 16.09344 0 0
7:15 am 07:15 Clear 63 17.1 58 14.5 85 85 SSE 8 13 29.85 1011 10 16.09344 0 0
7:35 am 07:35 Sunny 63 17.3 58 14.5 84 84 SSE 9 15 29.85 1011 10 16.09344 0 0
7:55 am 07:55 Sunny 64 17.6 58 14.5 82 82 SSE 10 17 29.85 1011 10 16.09344 0 0
8:15 am 08:15 Sunny 65 18.3 58 14.5 79 79 S 10 17 29.88 1012 10 16.09344 0 0
8:35 am 08:35 Sunny 67 19.3 58 14.6 74 74 S 9 15 29.85 1011 10 16.09344 0 0
8:55 am 08:55 Sunny 68 20.1 58 14.7 71 71 S 13 20 29.85 1011 10 16.09344 0 0
9:15 am 09:15 Sunny 70 21 58 14.6 67 67 S 13 20 29.85 1011 10 16.09344 0 0
9:35 am 09:35 Sunny 73 22.6 58 14.5 60 60 S 14 22 29.83 1010 10 16.09344 0 0
9:55 am 09:55 Sunny 74 23.5 57 14.1 56 56 S 20 31 29.83 1010 10 16.09344 0 0
10:15 am 10:15 Sunny 75 24.1 57 14 53 53 S 17 28 29.83 1010 10 16.09344 0 0
10:35 am 10:35 Sunny 77 24.8 57 14 51 51 S 17 28 29.83 1010 10 16.09344 0 0
10:55 am 10:55 Sunny 79 26 57 14 48 48 S 15 24 29.83 1010 10 16.09344 0 0
11:15 am 11:15 Sunny 80 26.8 56 13.6 44 44 S 17 28 29.8 1009 10 16.09344 0 0
11:35 am 11:35 Sunny 82 27.8 56 13.6 42 42 S 18 30 29.77 1008 10 16.09344 0 0
11:55 am 11:55 Sunny 83 28.6 56 13.1 38 38 S 21 33 29.77 1008 10 16.09344 0 0
12:15 pm 12:15 Sunny 84 29 53 11.9 35 35 S 23 37 29.77 1008 10 16.09344 0 0
12:35 pm 12:35 Sunny 85 29.4 54 12 34 34 S 25 41 29.77 1008 10 16.09344 0 0
12:55 pm 12:55 Sunny 86 30 53 11.9 33 33 S 17 28 29.74 1007 10 16.09344 0 0
1:15 pm 13:15 Sunny 85 29.6 52 11.1 32 32 S 26 43 29.77 1008 10 16.09344 0 0
1:35 pm 13:35 Sunny 87 30.5 53 11.6 31 31 S 21 33 29.74 1007 10 16.09344 0 0
1:55 pm 13:55 Sunny 87 30.6 53 11.5 31 31 S 21 33 29.71 1006 10 16.09344 0 0
2:15 pm 14:15 Sunny 87 30.3 52 11.3 31 31 S 18 30 29.71 1006 10 16.09344 0 0
2:35 pm 14:35 Sunny 87 30.5 53 11.4 31 31 S 22 35 29.71 1006 10 16.09344 0 0
2:55 pm 14:55 Sunny 87 30.5 53 11.8 32 32 SSE 20 31 29.71 1006 10 16.09344 0 0
3:15 pm 15:15 Sunny 87 30.5 52 11.3 31 31 S 21 33 29.68 1005 10 16.09344 0 0
3:35 pm 15:35 Sunny 87 30.7 51 10.8 29 29 S 20 31 29.68 1005 10 16.09344 0 0
3:55 pm 15:55 Sunny 87 30.8 51 10.7 29 29 SSE 23 37 29.68 1005 10 16.09344 0 0
4:15 pm 16:15 Sunny 87 30.8 51 10.4 28 28 S 23 37 29.65 1004 10 16.09344 0 0
4:35 pm 16:35 Sunny 87 30.7 50 10.2 28 28 S 21 33 29.65 1004 10 16.09344 0 0
4:55 pm 16:55 Sunny 87 30.6 50 10.1 28 28 S 21 33 29.65 1004 10 16.09344 0 0
5:15 pm 17:15 Sunny 87 30.3 49 9.6 28 28 SSE 26 43 29.65 1004 10 16.09344 0 0
5:35 pm 17:35 Sunny 86 30.1 50 10 29 29 SSE 23 37 29.65 1004 10 16.09344 0 0
5:55 pm 17:55 Sunny 86 29.8 51 10.3 30 30 S 22 35 29.65 1004 10 16.09344 0 0
6:15 pm 18:15 Sunny 85 29.5 52 11 32 32 SSE 18 30 29.65 1004 10 16.09344 0 0
6:35 pm 18:35 Sunny 84 28.8 52 11.3 34 34 SSE 17 28 29.65 1004 10 16.09344 0 0
6:55 pm 18:55 Sunny 83 28.1 53 11.7 36 36 SSE 17 28 29.68 1005 10 16.09344 0 0
7:15 pm 19:15 Sunny 81 27.1 55 12.6 41 41 SSE 14 22 29.68 1005 10 16.09344 0 0
7:35 pm 19:35 Clear 79 26.1 56 13.2 45 45 SSE 17 28 29.68 1005 10 16.09344 0 0
7:55 pm 19:55 Clear 78 25.7 57 13.7 48 48 SSE 15 24 29.71 1006 10 16.09344 0 0
8:15 pm 20:15 Clear 77 25 57 14.1 51 51 SSE 14 22 29.74 1007 10 16.09344 0 0
8:35 pm 20:35 Clear 76 24.7 58 14.3 52 52 SSE 15 24 29.74 1007 10 16.09344 0 0
8:55 pm 20:55 Clear 76 24.2 58 14.5 55 55 SSE 13 20 29.74 1007 10 16.09344 0 0
9:15 pm 21:15 Clear 74 23.5 58 14.7 58 58 SSE 14 22 29.74 1007 10 16.09344 0 0
9:35 pm 21:35 Clear 73 23 59 15 61 61 SSE 14 22 29.74 1007 10 16.09344 0 0
9:55 pm 21:55 Clear 73 22.7 59 15.2 63 63 SSE 15 24 29.74 1007 10 16.09344 0 0
10:15 pm 22:15 Clear 73 22.5 59 15.2 63 63 SSE 15 24 29.74 1007 10 16.09344 0 0
10:35 pm 22:35 Clear 72 22.3 59 15.1 64 64 SSE 15 24 29.74 1007 10 16.09344 0 0
10:55 pm 22:55 Clear 72 22.2 59 15 64 64 SSE 15 24 29.74 1007 10 16.09344 0 0
11:15 pm 23:15 Clear 73 22.5 59 15 63 63 SSE 16 26 29.74 1007 10 16.09344 0 0
11:35 pm 23:35 Clear 72 22.2 59 15 64 64 SSE 14 22 29.74 1007 10 16.09344 0 0
11:55 pm 23:55 Clear 72 22.2 59 15 64 64 SSE 12 19 29.77 1008 10 16.09344 0 0

Powered by AerisWeather